Regional Weather Roundup
Issued by NWS

Home | Current Version | Previous Version | Graphics & Text | Print | Product List | Glossary Off
Versions: 1 2 3 4 5 6 7 8 9 10 11 12 13 14 15 16 17 18 19 20 21 22 23 24 25 26 27 28 29 30 31 32 33 34 35 36 37 38 39 40 41 42 43 44 45 46 47 48 49 50

000
ASUS43 KMKX 061211
RWRWI

WISCONSIN REGIONAL WEATHER ROUNDUP
NATIONAL WEATHER SERVICE MILWAUKEE/SULLIVAN WI
600 AM CST TUE DEC 06 2016

NOTE: "FAIR" INDICATES FEW OR NO CLOUDS BELOW 12,000 FEET WITH NO
SIGNIFICANT WEATHER AND/OR OBSTRUCTIONS TO VISIBILITY.

WIZ001-002-006>008-014>016-023>028-061300-
NORTHWEST WISCONSIN

CITY           SKY/WX    TMP DP  RH WIND       PRES   REMARKS
SUPERIOR ARPT  CLOUDY    33  27  76 SW17G26   29.59S WCI  23
6HR MIN TEMP:  33; 6HR MAX TEMP:  38;

ASHLAND        FLURRIES  34  31  88 MISG      29.61F
6HR MIN TEMP:  33; 6HR MAX TEMP:  37; 6HR PCP:  0.01;

HAYWARD        LGT SNOW  33  30  88 S12       29.62F FOG     WCI  24
6HR MIN TEMP:  33; 6HR MAX TEMP:  35; 6HR PCP: TRACE;

SIREN          CLOUDY    31  25  77 SW14G21   29.65S WCI  21
6HR MIN TEMP:  31; 6HR MAX TEMP:  37;

CUMBERLAND     LGT SNOW  30  28  93 SW10      29.66S WCI  21
RICE LAKE      LGT SNOW  32  31  96 S8        29.68S WCI  25
6HR MIN TEMP:  32; 6HR MAX TEMP:  34; 6HR PCP:  0.02;

CHETEK         LGT SNOW  32  32 100 SW7       29.68S WCI  26
6HR MIN TEMP:  32; 6HR MAX TEMP:  34; 6HR PCP:  0.01;

LADYSMITH      LGT SNOW  32  32  99 S9        29.68F WCI  24
6HR MIN TEMP:  32; 6HR MAX TEMP:  35; 6HR PCP:  0.03;

EAU CLAIRE     LGT SNOW  33  32  96 S10       29.70S FOG     WCI  25
6HR MIN TEMP:  32; 6HR MAX TEMP:  35; 6HR PCP:  0.08;

MENOMONIE      LGT SNOW  32  32 100 SW10      29.70F WCI  24
6HR MIN TEMP:  32; 6HR MAX TEMP:  35; 6HR PCP:  0.07;

NEW RICHMOND   FLURRIES  29  25  83 SW15      29.69F WCI  18
6HR MIN TEMP:  29; 6HR MAX TEMP:  36;

OSCEOLA        CLOUDY    30  24  78 SW15G21   29.72S WCI  19
6HR MIN TEMP:  30; 6HR MAX TEMP:  38;

$$

WIZ003>005-009-010-017-018-061300-
NORTH CENTRAL WISCONSIN

CITY           SKY/WX    TMP DP  RH WIND       PRES   REMARKS
MANITOWISH WTR CLOUDY    31  31  99 S13G22    29.66F WCI  21
6HR MIN TEMP:  31; 6HR MAX TEMP:  33;

ARBOR VITAE    CLOUDY    32  28  87 S13G18    29.69S WCI  22
6HR MIN TEMP:  32; 6HR MAX TEMP:  37;

WOODRUFF       CLOUDY    32  28  87 S13G18    29.69S WCI  22
6HR MIN TEMP:  32; 6HR MAX TEMP:  37;

RHINELANDER    CLOUDY    31  28  89 S12       29.71F WCI  22
6HR MIN TEMP:  31; 6HR MAX TEMP:  34;

EAGLE RIVER    CLOUDY    31  26  83 S8        29.70S WCI  23
6HR MIN TEMP:  30; 6HR MAX TEMP:  33;

LAND O LAKES   CLOUDY    32  27  81 S8G16     29.70S WCI  25
6HR MIN TEMP:  32; 6HR MAX TEMP:  34;

PHILLIPS       LGT SNOW  31  30  96 S12       29.67F WCI  22
6HR MIN TEMP:  31; 6HR MAX TEMP:  33;

TOMAHAWK       CLOUDY    30  28  91 SE3       29.71F FOG
6HR MIN TEMP:  29; 6HR MAX TEMP:  30;

MEDFORD        CLOUDY    30  28  94 S13       29.70F FOG     WCI  20
6HR MIN TEMP:  29; 6HR MAX TEMP:  30;

MERRILL        CLOUDY    31  29  93 S8        29.74F WCI  23
6HR MIN TEMP:  30; 6HR MAX TEMP:  32;

$$

WIZ029-030-035-036-043>047-061300-
CENTRAL WISCONSIN

CITY           SKY/WX    TMP DP  RH WIND       PRES   REMARKS
WAUSAU         CLOUDY    30  28  92 S12       29.74F WCI  20
6HR MIN TEMP:  29; 6HR MAX TEMP:  31;

MOSINEE        CLOUDY    30  30 100 S12       29.76F FOG     WCI  21
MARSHFIELD     CLOUDY    30  28  92 S12       29.72F WCI  20
6HR MIN TEMP:  30; 6HR MAX TEMP:  31;

STEVENS POINT  CLOUDY    29  28  97 S9        29.77F FOG     WCI  20
6HR MIN TEMP:  28; 6HR MAX TEMP:  30;

WAUPACA        CLOUDY    33  31  90 CALM      29.81S FOG
6HR MIN TEMP:  33; 6HR MAX TEMP:  34;

WAUTOMA        CLOUDY    31  29  92 S6        29.80F FOG     WCI  25
WISC RAPIDS    CLOUDY    31  29  92 S8        29.77F WCI  23
6HR MIN TEMP:  31; 6HR MAX TEMP:  32;

CAMP DOUGLAS   CLOUDY    32  28  86 S7        29.77F WCI  26
$$

WIZ011>013-019>022-031-037>040-048>050-061300-
NORTHEAST WISCONSIN

CITY           SKY/WX    TMP DP  RH WIND       PRES   REMARKS
ANTIGO         CLOUDY    29  28  97 S13       29.74F FOG     WCI  19
6HR MIN TEMP:  28; 6HR MAX TEMP:  30;

SHAWANO        CLOUDY    37  34  90 CALM      29.80S
6HR MIN TEMP:  34; 6HR MAX TEMP:  37;

OCONTO         CLOUDY    38  35  87 S9        29.82S WCI  32
6HR MIN TEMP:  36; 6HR MAX TEMP:  39;

STURGEON BAY   CLOUDY    38  35  89 S9          N/A  WCI  31
6HR MIN TEMP:  38; 6HR MAX TEMP:  40;

GREEN BAY      CLOUDY    38  35  89 S9        29.82S WCI  31
6HR MIN TEMP:  37; 6HR MAX TEMP:  39;

MANITOWOC      CLOUDY    39  34  82 S13       29.84F WCI  31
6HR MIN TEMP:  39; 6HR MAX TEMP:  40;

APPLETON       CLOUDY    34  34 100 S7        29.80S FOG     WCI  28
CLINTONVILLE   CLOUDY    34  32  93 S8        29.80F FOG     WCI  27
OSHKOSH        CLOUDY    33  31  92 S8        29.81S FOG     WCI  26
6HR MIN TEMP:  33; 6HR MAX TEMP:  34;

$$

WIZ032>034-041-042-053>061-061300-
SOUTHWEST WISCONSIN

CITY           SKY/WX    TMP DP  RH WIND       PRES   REMARKS
LA CROSSE      CLOUDY    35  32  88 S13       29.77S FOG     WCI  26
6HR MIN TEMP:  34; 6HR MAX TEMP:  37; 6HR PCP: TRACE;

SPARTA         CLOUDY    32  30  93 S6        29.77S WCI  26
6HR MIN TEMP:  32; 6HR MAX TEMP:  33;

VIROQUA        CLOUDY    30  30 100 S10       29.76R WCI  21
6HR MIN TEMP:  30; 6HR MAX TEMP:  32;

BOSCOBEL       CLOUDY    33  31  92 SW3       29.81S
6HR MIN TEMP:  33; 6HR MAX TEMP:  34;

PRAIRIE DU CHI CLOUDY    33  31  93 CALM      29.80S FOG
6HR MIN TEMP:  32; 6HR MAX TEMP:  33;

PLATTEVILLE    CLOUDY    32  32 100 SE6       29.80S VSB 1/2 WCI  26
6HR MIN TEMP:  31; 6HR MAX TEMP:  32;

$$

WIZ056-057-062-063-064-067-068-061300-
SOUTH CENTRAL WISCONSIN

CITY           SKY/WX    TMP DP  RH WIND       PRES   REMARKS
REEDSBURG      CLOUDY    31  31 100 S5        29.79S WCI  26
6HR MIN TEMP:  30; 6HR MAX TEMP:  32;

BARABOO/DELLS  CLOUDY    31  30  96 SW8       29.80S FOG     WCI  23
6HR MIN TEMP:  30; 6HR MAX TEMP:  32;

LONE ROCK      CLOUDY    32  30  92 E3        29.81F FOG
6HR MIN TEMP:  31; 6HR MAX TEMP:  32;

MINERAL POINT  FOG       32  32 100 SE5       29.79S VSB 1/2 WCI  27
MADISON        FRZ DRZL  32  31  96 S7        29.81S FOG     WCI  26
6HR MIN TEMP:  30; 6HR MAX TEMP:  32;

MIDDLETON      NOT AVBL
WATERTOWN      CLOUDY    32  32 100 CALM      29.80F FOG
6HR MIN TEMP:  30; 6HR MAX TEMP:  32;

MONROE         FOG       32  32 100 SW6       29.80R VSB 1/4 WCI  26
JANESVILLE     CLOUDY    34  34 100 CALM      29.81S FOG
$$

WIZ051-052-058>065-066-070>072-061300-
SOUTHEAST WISCONSIN

CITY           SKY/WX    TMP DP  RH WIND       PRES   REMARKS
MILWAUKEE      CLOUDY    38  33  82 SE8       29.81F WCI  32
6HR MIN TEMP:  36; 6HR MAX TEMP:  39;

WAUKESHA       CLOUDY    30  28  93 E7        29.82F FOG     WCI  23
MILWAUKEE/TIMM MOCLDY    34  32  93 CALM      29.82F FOG
RACINE         MOCLDY    37  33  85 SE7       29.82F WCI  32
6HR MIN TEMP:  37; 6HR MAX TEMP:  39;

BURLINGTON     CLOUDY    32  32 100 CALM      29.80F FOG
6HR MIN TEMP:  31; 6HR MAX TEMP:  33;

KENOSHA        PTCLDY    33  31  92 E6        29.80F FOG     WCI  28
6HR MIN TEMP:  33; 6HR MAX TEMP:  37;

FOND DU LAC    CLOUDY    34  30  85 S8        29.80F WCI  27
6HR MIN TEMP:  33; 6HR MAX TEMP:  35;

SHEBOYGAN      CLOUDY    36  34  92 S5        29.82F WCI  32
6HR MIN TEMP:  36; 6HR MAX TEMP:  38;

WEST BEND      CLOUDY    34  34 100 E3        29.81F FOG
JUNEAU         FOG       31  31  99 S3        29.81F VSB 1/4
6HR MIN TEMP:  30; 6HR MAX TEMP:  31;

$$

LSZ147-162-061300-
LAKE SUPERIOR

STATION/POSITION TIME  TEMP    WIND        PRES    WAVE
                       AIR SEA DIR/SP/G            HT/PER
                 (UTC) (F)     (DEG/KT/KT) (MB)    (FT/S)
DEVILS ISLAND    1200   36     170/ 12/ 17 1003.4F
PORT WING        1130   38     190/ 10/ 13 1002.4F
SAXON HARBOR     1130   36     170/  5/ 13 1003.7F
$$

LMZ867-665-643>646-061300-
LAKE MICHIGAN

STATION/POSITION TIME  TEMP    WIND        PRES    WAVE
                       AIR SEA DIR/SP/G            HT/PER
                 (UTC) (F)     (DEG/KT/KT) (MB)    (FT/S)
CHAMBERS ISLAND  1140   40     140/  8/ 15 1010.2F
NORTHPORT PIER   1140   40     150/ 10/ 18 1010.5S
SISTER BAY C1F1C2F2C3F3C4F4C5F5C6F6C7F7C8M1C9M2Ca!



USA.gov is the U.S. government's official web portal to all federal, state and local government web resources and services.